Location: Gilevgi
(36.8751°N, 30.0581°E)
Time: 05:14:51
(UTC+00:00)

Cosmos 1553 Rocket - Pass Details

Date: 11 December 2025
Orbit: 942 x 1006 km, 82.9° (Epoch: 13 January)

Event Time Altitude Azimuth Distance (km) Brightness Sun altitude
Rises 16:14:19 0° 174° (S) 3,605 7.1 -17.6°
Reaches altitude 10° 16:16:49 10° 171° (S) 2,671 6.4 -18.1°
Maximum altitude 16:22:48 61° 93° (E) 1,084 3.9 -19.3°
Drops below altitude 10° 16:28:56 10° 14° (NNE) 2,729 6.1 -20.4°
Enters shadow 16:30:10 - 12° (NNE) 3,189 6.4 -20.7°
